Miscellaneous Local Product
Issued by NWS North Platte, NE

Home | Current Version | Previous Version | Graphics & Text | Print | Product List | Glossary On
Versions: 1 2 3 4 5 6 7 8 9 10 11 12 13 14 15 16 17 18 19 20 21 22 23 24 25 26 27 28 29 30 31 32 33 34 35 36 37 38 39 40 41 42 43 44 45 46 47 48 49 50
000
AXUS43 KLBF 241510
MISLBF


WESTERN AND NORTH CENTRAL NEBRASKA HOURLY WEATHER ROUNDUP
NATIONAL WEATHER SERVICE NORTH PLATTE NE
900 AM CST SAT JAN 24 2015

***STATIONS NOT REPORTING VARIABLES SUCH AS SKY/WEATHER OR
PRESSURE ARE PROVIDED BY THE NEBRASKA DEPARTMENT OF
ROADS...RAWS...AND APRS NETWORKS...AND ARE NOT UNDER
NATIONAL WEATHER SERVICE QUALITY CONTROL***

...OBSERVATIONS IN AND NEAR THE EASTERN PANHANDLE OF NEBRASKA...

CITY           SKY/WX    TMP DP  RH WIND       PRES   REMARKS
PINE RIDGE     CLOUDY    37  24  59 W8        29.92F WCI  31
CHADRON        CLOUDY    39  25  57 SW13      29.95F WCI  31
ALLIANCE       CLOUDY    31  25  78 W8        29.96F WCI  23
SIDNEY         MOCLDY    35  19  52 W16       30.01F WCI  25
$$

...OBSERVATIONS IN NORTH CENTRAL NEBRASKA...

CITY           SKY/WX    TMP DP  RH WIND       PRES   REMARKS
VALENTINE      CLOUDY    35  27  72 W10       29.87F WCI  27
THEDFORD       CLOUDY    38  28  65 W9        29.91F WCI  32
AINSWORTH      CLOUDY    37  28  69 W15       29.86F WCI  28
O`NEILL        PTCLDY    36  30  78 W8        29.85F WCI  30
ORD            PTCLDY    34  26  72 NW7       29.90F WCI  28
BROKEN BOW     MOCLDY    34  26  72 W9        29.93S WCI  27
$$

...OBSERVATIONS IN SOUTHWEST NEBRASKA AND FAR NORTHEAST COLORADO...

CITY           SKY/WX    TMP DP  RH WIND       PRES   REMARKS
WRAY           FAIR      29  26  85 SW8       30.05S WCI  22
HOLYOKE        FAIR      32  27  80 W9        30.03F WCI  24
IMPERIAL       PTCLDY    33  23  66 W14       30.02F WCI  23
OGALLALA       CLOUDY    28  24  85 W10       30.01F WCI  18
NORTH PLATTE   PTCLDY    28  24  85 NW7       29.98F WCI  21
MCCOOK         CLEAR     33  25  72 W8        30.02F WCI  26
LEXINGTON      PTCLDY    26  24  89 NW7       29.98S WCI  19
$$

...NORTH PLATTE AREA...

CITY           SKY/WX    TMP DP  RH WIND       PRES   REMARKS
AIRPORT        PTCLDY    28  24  85 NW7       29.98F WCI  21
$$

...SOME WEATHER OBSERVATIONS FROM AROUND THE REGION...

CITY           SKY/WX    TMP DP  RH WIND       PRES   REMARKS
DENVER         MOCLDY    35  16  45 SW17      30.06R WCI  25
LARAMIE        CLOUDY    30  11  45 SW18      30.13F WCI  18
CHEYENNE       CLOUDY    39  10  30 NW14G25   30.04F WCI  31
SCOTTSBLUFF    CLOUDY    38  24  57 NW14      30.00S WCI  30
RAPID CITY     CLOUDY    39  26  59 E3        29.83F
PIERRE         CLOUDY    35  27  72 W10       29.78F WCI  27
WINNER         FAIR      43  27  53 W13       29.82F
SIOUX FALLS    MOCLDY    33  28  81 W5        29.77F WCI  29
OMAHA          MOSUNNY   34  29  82 CALM      29.88F
GRAND ISLAND   SUNNY     32  26  78 W13       29.94F WCI  22
KANSAS CITY    MOSUNNY   33  29  85 SW8       29.95F WCI  26
WICHITA        MOSUNNY   39  29  67 W5        30.08S
HAYS           SUNNY     32  19  59 W9        30.05F WCI  24
LIBERAL        SUNNY     34  25  69 W12       30.16F WCI  25
GOODLAND       CLEAR     34  26  72 W12       30.06S WCI  25
$$



USA.gov is the U.S. government's official web portal to all federal, state and local government web resources and services.